LRTM Weather Reports


time (UTC)temp
C
wind
direction
speed
KPH
gust
KPH
rain 1hr
cm
rain 24hr
cm
rain mn
cm
humidity
%
barometer
mb
20260504173326 20 310 9.7 0.0 0.00 0.00 0.00 35 1015.0
20260504171826 22 290 14.5 0.0 0.00 0.00 0.00 29 1015.0
20260504170326 22 290 14.5 0.0 0.00 0.00 0.00 29 1015.0
20260504160327 23 290 20.9 0.0 0.00 0.00 0.00 25 1014.0
20260504150326 23 290 22.5 0.0 0.00 0.00 0.00 25 1015.0
20260504140327 25 280 20.9 0.0 0.00 0.00 0.00 24 1015.0
20260504130326 25 300 17.7 0.0 0.00 0.00 0.00 24 1015.0
20260504110326 23 300 16.1 0.0 0.00 0.00 0.00 25 1017.0
20260504100326 22 320 16.1 0.0 0.00 0.00 0.00 29 1017.0
20260504081826 16 230 9.7 0.0 0.00 0.00 0.00 52 1019.0
20260504080326 16 230 9.7 0.0 0.00 0.00 0.00 52 1019.0
20260504070327 12 240 8.0 0.0 0.00 0.00 0.00 55 1019.0
20260504050336 6 1.6 0.0 0.00 0.00 0.00 81 1019.0
20260504044827 3 1.6 0.0 0.00 0.00 0.00 87 1019.0
20260504043326 3 1.6 0.0 0.00 0.00 0.00 87 1019.0
20260504041826 2 110 3.2 0.0 0.00 0.00 0.00 87 1019.0
20260504040326 2 110 3.2 0.0 0.00 0.00 0.00 87 1019.0
20260504034827 2 3.2 0.0 0.00 0.00 0.00 87 1019.0
20260504033326 2 3.2 0.0 0.00 0.00 0.00 87 1019.0
20260504031826 2 90 3.2 0.0 0.00 0.00 0.00 87 1019.0
20260504030444 2 90 3.2 0.0 0.00 0.00 0.00 87 1019.0
20260504024827 2 230 3.2 0.0 0.00 0.00 0.00 87 1019.0
20260504023326 2 230 3.2 0.0 0.00 0.00 0.00 87 1019.0
20260504021826 2 0 0.0 0.0 0.00 0.00 0.00 87 1019.0
20260504020326 2 0 0.0 0.0 0.00 0.00 0.00 87 1019.0
20260504014826 3 60 4.8 0.0 0.00 0.00 0.00 81 1019.0
20260504013331 3 60 4.8 0.0 0.00 0.00 0.00 81 1019.0
20260504011944 3 1.6 0.0 0.00 0.00 0.00 81 1019.0
20260504010326 3 1.6 0.0 0.00 0.00 0.00 81 1019.0
20260504004944 2 1.6 0.0 0.00 0.00 0.00 87 1019.0
20260504003326 2 1.6 0.0 0.00 0.00 0.00 87 1019.0
20260504001826 2 1.6 0.0 0.00 0.00 0.00 81 1019.0
20260504000326 2 1.6 0.0 0.00 0.00 0.00 81 1019.0
20260503234906 3 280 1.6 0.0 0.00 0.00 0.00 81 1019.0
20260503233326 3 280 1.6 0.0 0.00 0.00 0.00 81 1019.0
20260503231830 3 360 3.2 0.0 0.00 0.00 0.00 81 1019.0
20260503230338 3 360 3.2 0.0 0.00 0.00 0.00 81 1019.0
20260503224826 3 80 4.8 0.0 0.00 0.00 0.00 75 1019.0
20260503223338 3 80 4.8 0.0 0.00 0.00 0.00 75 1019.0
20260503221843 5 80 4.8 0.0 0.00 0.00 0.00 70 1019.0
20260503220408 5 80 4.8 0.0 0.00 0.00 0.00 70 1019.0
20260503214833 6 70 3.2 0.0 0.00 0.00 0.00 76 1019.0
20260503213326 6 70 3.2 0.0 0.00 0.00 0.00 76 1019.0
20260503211827 6 20 1.6 0.0 0.00 0.00 0.00 71 1019.0
20260503210326 6 20 1.6 0.0 0.00 0.00 0.00 71 1019.0
20260503204833 7 1.6 0.0 0.00 0.00 0.00 66 1019.0
20260503203444 7 1.6 0.0 0.00 0.00 0.00 66 1019.0
20260503201826 7 250 4.8 0.0 0.00 0.00 0.00 66 1019.0
20260503200336 7 250 4.8 0.0 0.00 0.00 0.00 66 1019.0
20260503194852 8 1.6 0.0 0.00 0.00 0.00 62 1019.0
20260503193444 8 1.6 0.0 0.00 0.00 0.00 62 1019.0
20260503191826 10 240 1.6 0.0 0.00 0.00 0.00 54 1019.0
20260503190326 10 240 1.6 0.0 0.00 0.00 0.00 54 1019.0
20260503184943 11 210 3.2 0.0 0.00 0.00 0.00 50 1018.0
20260503183326 11 210 3.2 0.0 0.00 0.00 0.00 50 1018.0
20260503181826 12 260 9.7 0.0 0.00 0.00 0.00 51 1018.0
20260503180326 12 260 9.7 0.0 0.00 0.00 0.00 51 1018.0
20260503174846 12 250 11.3 0.0 0.00 0.00 0.00 47 1018.0